Location: Kitchener-Waterloo
(43.4500°N, 80.5000°W)
Time: 11:19:29
(UTC-05:00)

Amateur Radio Satellites - All Passes

Search period start: 29 January 2015 10:49
Search period end: 30 January 2015 10:49
Location: Kitchener-Waterloo, 43.4500°N, 80.5000°W

Satellite Date Start Highest point End Downlink Frequencies (MHz)
Time Altitude Azimuth
DOVE 4 29 Jan 10:49:42 10:53:54 24° 295° (WNW) 10:57:50 437.250
AISAT 29 Jan 10:49:56 10:54:20 49° 100° (E) 10:58:42 437.250
UWE-3 29 Jan 10:51:54 10:56:24 59° 286° (WNW) 11:00:42 435.000/436.395/437.385
ESTCUBE 1 29 Jan 10:53:10 10:56:48 24° 93° (E) 11:00:30 437.505/2401.250
AAUSAT CUBESAT 2 29 Jan 10:53:19 10:56:08 17° 294° (WNW) 10:58:49 437.432
BUGSAT 1 29 Jan 10:53:54 10:57:58 66° 259° (WSW) 11:02:08 437.445
POLYITAN 1 29 Jan 10:56:50 11:00:59 47° 261° (W) 11:05:12 437.675
UNISAT 6 29 Jan 11:00:45 11:04:55 30° 265° (W) 11:09:01 437.425
RS-15 29 Jan 11:03:10 11:12:12 27° 16° (NNE) 11:21:38 29.354- 29.394
Oscar 11 29 Jan 11:06:04 11:09:42 26° 292° (WNW) 11:13:12 145.826/435.025
GONETS M04 29 Jan 11:09:58 11:16:30 24° 61° (ENE) 11:23:19
VERMONT LUNAR 29 Jan 11:14:02 11:17:27 53° 180° (S) 11:20:54 437.305
AIST 1 29 Jan 11:15:28 11:19:29 43° 93° (E) 11:23:33
POPSAT HIP 1 29 Jan 11:17:24 11:21:10 29° 265° (W) 11:24:57 437.405
VELOX 1 29 Jan 11:18:08 11:22:39 87° 290° (WNW) 11:27:09 145.980
DUCHIFAT 1 29 Jan 11:20:09 11:23:51 28° 265° (W) 11:27:32 145.980
CUBEBUG 1 29 Jan 11:26:33 11:30:52 49° 99° (E) 11:35:12 437.445
50 SAT 29 Jan 11:34:40 11:38:39 54° 286° (WNW) 11:42:34 437.505
SO-50 29 Jan 11:38:57 11:43:19 40° 313° (NW) 11:47:49 436.795
ANTELSAT 29 Jan 11:38:58 11:41:22 13° 272° (W) 11:43:31 437.575/2403.000
AIST 2 29 Jan 11:39:57 11:44:13 58° 53° (NE) 11:48:23 435.215
UKube-1 29 Jan 11:41:40 11:45:00 21° 294° (WNW) 11:48:13 .
BEESAT 2 29 Jan 11:44:13 11:48:20 55° 240° (WSW) 11:52:21 435.950
TIGRISAT 29 Jan 11:47:38 11:49:13 11° 274° (W) 11:50:30 435.000
TISAT 1 29 Jan 11:49:43 11:52:56 21° 92° (E) 11:56:15 437.305
CUBEBUG 2 29 Jan 11:49:46 11:52:31 15° 297° (WNW) 11:55:03 437.445
ZACube-1 29 Jan 11:56:59 11:59:55 17° 296° (WNW) 12:02:37 437.345
NANOSAT C BR1 29 Jan 11:57:07 11:58:54 12° 272° (W) 12:00:28 145.865
BEESAT 3 29 Jan 11:58:33 12:02:21 34° 244° (WSW) 12:06:04 437.485
HUMSAT D 29 Jan 11:59:04 12:02:34 25° 292° (WNW) 12:05:56 437.325/437.525
HO-68 29 Jan 12:00:36 12:03:26 12° 312° (NW) 12:05:52 435.675
DX 1 29 Jan 12:03:29 12:05:41 13° 298° (WNW) 12:07:41 434.975-435.025
FUNcube-1 29 Jan 12:09:35 12:11:45 13° 298° (WNW) 12:13:42 145.935
PCSat 29 Jan 12:12:16 12:16:19 21° 41° (NE) 12:20:28 145.827
PHONESAT 2.4 29 Jan 12:13:01 12:16:34 52° 184° (S) 12:20:08 2401.200-2431.200
Oscar 19 29 Jan 12:18:12 12:22:56 37° 68° (ENE) 12:27:43 437.125/150
AISAT 29 Jan 12:27:27 12:30:38 19° 296° (WNW) 12:33:41 437.250
ESTCUBE 1 29 Jan 12:29:39 12:33:47 35° 290° (WNW) 12:37:54 437.505/2401.250
ITAMSAT 1 29 Jan 12:35:37 12:39:19 21° 63° (ENE) 12:43:11 435.822/435.867
ITUPSAT 1 29 Jan 12:37:09 12:37:42 10° 86° (E) 12:38:35 437.325
SPROUT 29 Jan 12:47:46 12:52:09 88° 290° (WNW) 12:56:30 437.525
VERMONT LUNAR 29 Jan 12:52:06 12:55:18 33° 197° (SSW) 12:58:31 437.305
AIST 1 29 Jan 12:54:38 12:57:28 17° 292° (WNW) 13:00:10
VELOX 1 29 Jan 12:57:46 12:58:36 10° 300° (WNW) 12:59:13 145.980
CUBEBUG 1 29 Jan 13:03:51 13:06:56 18° 295° (WNW) 13:09:53 437.445
GONETS M04 29 Jan 13:05:48 13:14:32 80° 264° (W) 13:23:12
RS-15 29 Jan 13:16:28 13:27:36 60° 47° (NE) 13:39:16 29.354- 29.394
AIST 2 29 Jan 13:19:49 13:22:25 15° 249° (WSW) 13:24:50 435.215
SO-50 29 Jan 13:24:34 13:25:16 10° 335° (NNW) 13:25:49 436.795
TISAT 1 29 Jan 13:24:56 13:28:55 36° 290° (WNW) 13:32:51 437.305
Gurwin Techsat 1B 29 Jan 13:31:43 13:36:42 44° 70° (ENE) 13:41:45 435.225
AO-7 29 Jan 13:34:46 13:40:27 21° 50° (NE) 13:46:25 29.400- 29.500
HORYU 2 29 Jan 13:40:46 13:43:26 16° 63° (ENE) 13:46:16 437.375
PHONESAT 2.4 29 Jan 13:51:40 13:54:49 27° 201° (SSW) 13:57:57 2401.200-2431.200
SWISSCUBE 29 Jan 13:51:49 13:56:36 67° 102° (ESE) 14:01:22 437.505
PCSat 29 Jan 13:54:56 14:00:24 75° 241° (WSW) 14:05:47 145.827
Oscar 19 29 Jan 13:57:51 14:02:22 29° 266° (W) 14:06:51 437.125/150
BEESAT 29 Jan 14:07:36 14:12:25 88° 103° (ESE) 14:17:12 436.000
ITUPSAT 1 29 Jan 14:11:34 14:16:23 87° 282° (WNW) 14:21:11 437.325
ITAMSAT 1 29 Jan 14:13:23 14:18:28 56° 260° (W) 14:23:35 435.822/435.867
DANDE 29 Jan 14:13:39 14:18:33 21° 57° (ENE) 14:22:47 436.750
STARS 29 Jan 14:20:35 14:23:21 17° 90° (E) 14:26:15 437.465
KKS-1 29 Jan 14:26:27 14:30:20 28° 95° (E) 14:34:15 437.445
VERMONT LUNAR 29 Jan 14:31:51 14:32:51 11° 211° (SSW) 14:33:44 437.305
CUSAT 1 29 Jan 14:41:36 14:47:28 36° 66° (ENE) 14:52:00 437.405
GONETS M04 29 Jan 15:05:12 15:10:06 16° 283° (WNW) 15:14:29
Gurwin Techsat 1B 29 Jan 15:12:30 15:16:55 25° 267° (W) 15:21:13 435.225
HORYU 2 29 Jan 15:15:16 15:19:43 58° 259° (W) 15:24:11 437.375
AUBIESAT-1 29 Jan 15:19:32 15:21:49 18° 99° (E) 15:24:14 437.475
O/OREOS (USA 219) 29 Jan 15:21:12 15:23:35 15° 100° (E) 15:26:11 437.305
AO-7 29 Jan 15:23:48 15:32:11 82° 70° (ENE) 15:40:36 29.400- 29.500
RS-15 29 Jan 15:29:14 15:39:53 46° 249° (WSW) 15:50:47 29.354- 29.394
SWISSCUBE 29 Jan 15:31:06 15:34:00 16° 298° (WNW) 15:36:44 437.505
JAS-2 29 Jan 15:45:36 15:50:46 47° 71° (ENE) 15:55:46 435.910
BEESAT 29 Jan 15:47:41 15:49:38 12° 300° (WNW) 15:51:23 436.000
ITUPSAT 1 29 Jan 15:51:58 15:53:38 11° 301° (WNW) 15:55:03 437.325
STARS 29 Jan 15:55:52 16:00:11 49° 288° (WNW) 16:04:27 437.465
DANDE 29 Jan 15:56:17 16:03:05 66° 265° (W) 16:08:05 436.750
KKS-1 29 Jan 16:03:03 16:06:59 29° 292° (WNW) 16:10:49 437.445
MOZHAYETS 4 29 Jan 16:07:50 16:10:19 15° 89° (E) 16:13:00
Cubesat XI-IV 29 Jan 16:20:32 16:23:39 16° 60° (ENE) 16:26:58 437.490
M-CUBED/EXP-1 PRIME 29 Jan 16:20:37 16:23:54 61° 291° (WNW) 16:27:16 437.505
CUSAT 1 29 Jan 16:24:58 16:30:21 30° 274° (W) 16:34:30 437.405
CUTE-I 29 Jan 16:39:22 16:43:23 23° 63° (ENE) 16:47:34 437.470
SO-50 29 Jan 16:51:00 16:51:19 10° 24° (NNE) 16:51:48 436.795
AUBIESAT-1 29 Jan 16:54:01 16:56:51 26° 295° (WNW) 16:59:43 437.475
O/OREOS (USA 219) 29 Jan 16:58:09 17:02:34 57° 296° (WNW) 17:07:03 437.305
AO-7 29 Jan 17:19:42 17:26:02 22° 271° (W) 17:32:02 29.400- 29.500
JAS-2 29 Jan 17:32:01 17:36:15 22° 268° (W) 17:40:11 435.910
MOZHAYETS 4 29 Jan 17:43:31 17:48:01 58° 286° (WNW) 17:52:30
PRISM 29 Jan 17:55:42 17:58:38 19° 92° (E) 18:01:40 437.425
Cubesat XI-IV 29 Jan 17:57:53 18:03:11 77° 257° (WSW) 18:08:34 437.490
CUBESAT XI-V 29 Jan 18:00:38 18:03:43 18° 90° (E) 18:06:59 437.345
YUBILEINY 29 Jan 18:12:45 18:17:54 18° 78° (ENE) 18:23:31 435.215
STRAND 1 29 Jan 18:14:51 18:18:16 18° 90° (E) 18:21:50 437.568
CUTE-I 29 Jan 18:17:59 18:23:10 52° 260° (W) 18:28:23 437.470
SO-50 29 Jan 18:28:44 18:33:20 38° 47° (NE) 18:37:56 436.795
BRITE-PL 29 Jan 18:38:51 18:41:20 14° 58° (ENE) 18:44:08 437.365/2234.400
HO-68 29 Jan 18:53:24 18:59:01 27° 58° (ENE) 19:04:48 435.675
SEEDS 29 Jan 19:18:49 19:21:10 15° 64° (ENE) 19:23:40 437.485
PRISM 29 Jan 19:30:28 19:34:20 38° 289° (WNW) 19:38:11 437.425
CUBESAT XI-V 29 Jan 19:36:58 19:41:32 51° 287° (WNW) 19:46:04 437.345
COMPASS 1 29 Jan 19:43:47 19:47:01 22° 68° (ENE) 19:50:21 437.405
STRAND 1 29 Jan 19:52:51 19:57:55 58° 288° (WNW) 20:02:58 437.568
CANX-2 29 Jan 19:58:21 20:02:28 48° 73° (ENE) 20:06:38 2200.000
CINEMA 3 29 Jan 20:02:33 20:06:23 24° 66° (ENE) 20:10:24 145.822/145.860
DELFI C3 29 Jan 20:04:08 20:05:55 13° 64° (ENE) 20:07:54 145.870
YUBILEINY 29 Jan 20:04:55 20:13:37 88° 99° (E) 20:22:23 435.215
GOMX 1 29 Jan 20:07:15 20:12:15 57° 73° (ENE) 20:17:34 467.674
AAUSAT CUBESAT 2 29 Jan 20:09:05 20:12:55 35° 71° (ENE) 20:16:47 437.432
SO-50 29 Jan 20:09:27 20:13:51 32° 245° (WSW) 20:18:11 436.795
BRITE-PL 29 Jan 20:13:56 20:19:01 89° 82° (E) 20:24:34 437.365/2234.400
UWE-3 29 Jan 20:15:34 20:18:15 16° 63° (ENE) 20:21:07 435.000/436.395/437.385
DOVE 4 29 Jan 20:17:32 20:22:27 53° 72° (ENE) 20:27:37 437.250
CUTE 1.7 + AOD 2 29 Jan 20:22:15 20:26:33 80° 76° (ENE) 20:30:51 437.475
Oscar 11 29 Jan 20:25:52 20:29:34 28° 69° (ENE) 20:33:19 145.826/435.025
HO-68 29 Jan 20:39:08 20:46:15 68° 257° (WSW) 20:53:24 435.675
VELOX 1 29 Jan 20:44:06 20:45:23 11° 60° (ENE) 20:46:53 145.980
50 SAT 29 Jan 20:51:26 20:52:21 11° 62° (ENE) 20:53:29 437.505
SEEDS 29 Jan 20:52:26 20:56:37 55° 260° (W) 21:00:49 437.485
UKube-1 29 Jan 21:01:06 21:05:08 39° 70° (ENE) 21:09:13 .
CUBEBUG 2 29 Jan 21:10:37 21:15:17 60° 73° (ENE) 21:20:02 437.445
ZACube-1 29 Jan 21:16:22 21:20:47 49° 72° (ENE) 21:25:16 437.345
HUMSAT D 29 Jan 21:16:25 21:20:04 27° 68° (ENE) 21:23:47 437.325/437.525
COMPASS 1 29 Jan 21:18:44 21:22:37 34° 264° (W) 21:26:27 437.405
DX 1 29 Jan 21:22:09 21:26:29 70° 74° (ENE) 21:30:52 434.975-435.025
AIST 1 29 Jan 21:22:46 21:24:50 13° 66° (ENE) 21:27:06
FUNcube-1 29 Jan 21:28:01 21:32:33 63° 75° (ENE) 21:37:08 145.935
CANX-2 29 Jan 21:36:00 21:38:45 16° 270° (W) 21:41:20 2200.000
DELFI C3 29 Jan 21:36:42 21:40:45 60° 259° (W) 21:44:48 145.870
CINEMA 3 29 Jan 21:38:34 21:43:20 46° 263° (W) 21:48:11 145.822/145.860
AAUSAT CUBESAT 2 29 Jan 21:45:30 21:48:43 21° 268° (W) 21:51:52 437.432
GOMX 1 29 Jan 21:47:07 21:50:51 19° 272° (W) 21:54:33 467.674
AISAT 29 Jan 21:49:05 21:53:23 51° 72° (ENE) 21:57:46 437.250
UWE-3 29 Jan 21:49:40 21:54:21 65° 260° (W) 21:59:03 435.000/436.395/437.385
ANTELSAT 29 Jan 21:52:35 21:54:28 13° 87° (E) 21:56:34 437.575/2403.000
ESTCUBE 1 29 Jan 21:54:16 21:57:56 26° 68° (ENE) 22:01:42 437.505/2401.250
BRITE-PL 29 Jan 21:56:30 21:58:32 12° 277° (W) 22:00:17 437.365/2234.400
DOVE 4 29 Jan 21:56:46 22:00:37 21° 271° (W) 22:04:26 437.250
TIGRISAT 29 Jan 21:59:34 22:02:02 15° 89° (E) 22:04:39 435.000
Oscar 11 29 Jan 22:01:57 22:05:43 28° 265° (W) 22:09:28 145.826/435.025
YUBILEINY 29 Jan 22:05:29 22:11:52 21° 301° (WNW) 22:17:56 435.215
ISS 29 Jan 22:07:28 22:10:41 58° 143° (SE) 22:13:56 145.825
VELOX 1 29 Jan 22:16:56 22:21:23 84° 259° (W) 22:25:53 145.980
QB50P2 29 Jan 22:18:31 22:20:49 14° 89° (E) 22:23:17 145.880/145.840
50 SAT 29 Jan 22:22:48 22:26:56 78° 257° (WSW) 22:31:06 437.505
CUBEBUG 1 29 Jan 22:23:57 22:28:07 47° 72° (ENE) 22:32:21 437.445
QB50P1 29 Jan 22:27:12 22:30:05 18° 91° (E) 22:33:05 145.935-145.965
HO-68 29 Jan 22:33:31 22:35:32 11° 277° (W) 22:36:57 435.675
BUGSAT 1 29 Jan 22:36:14 22:39:00 17° 91° (E) 22:41:56 437.445
UKube-1 29 Jan 22:38:17 22:41:31 20° 268° (W) 22:44:38 .
POLYITAN 1 29 Jan 22:41:50 22:45:26 26° 94° (E) 22:49:04 437.675
TISAT 1 29 Jan 22:43:49 22:46:48 19° 66° (ENE) 22:49:56 437.305
CUBEBUG 2 29 Jan 22:49:30 22:52:28 16° 272° (W) 22:55:15 437.445
UNISAT 6 29 Jan 22:51:22 22:55:45 54° 100° (E) 23:00:01 437.425
HUMSAT D 29 Jan 22:51:58 22:55:49 29° 265° (W) 22:59:37 437.325/437.525
ZACube-1 29 Jan 22:54:14 22:57:29 18° 270° (W) 23:00:36 437.345
AIST 1 29 Jan 22:58:42 23:03:00 59° 265° (W) 23:07:17
POPSAT HIP 1 29 Jan 23:01:14 23:05:19 40° 98° (E) 23:09:23 437.405
DX 1 29 Jan 23:01:49 23:03:20 11° 272° (W) 23:04:36 434.975-435.025
DUCHIFAT 1 29 Jan 23:03:32 23:07:39 42° 98° (E) 23:11:44 145.980
FUNcube-1 29 Jan 23:06:54 23:09:25 14° 272° (W) 23:11:43 145.935
SWISSCUBE 29 Jan 23:25:49 23:27:07 11° 59° (ENE) 23:28:41 437.505
ANTELSAT 29 Jan 23:27:25 23:31:51 62° 286° (WNW) 23:36:08 437.575/2403.000
AISAT 29 Jan 23:27:31 23:30:23 16° 270° (W) 23:33:07 437.250
ESTCUBE 1 29 Jan 23:30:42 23:34:45 32° 264° (W) 23:38:47 437.505/2401.250
TIGRISAT 29 Jan 23:34:52 23:39:15 53° 287° (WNW) 23:43:29 435.000
NANOSAT C BR1 29 Jan 23:38:09 23:42:28 79° 286° (WNW) 23:46:45 145.865
BEESAT 29 Jan 23:40:13 23:42:41 15° 61° (ENE) 23:45:20 436.000
SPROUT 29 Jan 23:42:55 23:47:14 82° 77° (ENE) 23:51:36 437.525
ITUPSAT 1 29 Jan 23:44:13 23:46:55 16° 62° (ENE) 23:49:47 437.325
ISS 29 Jan 23:44:26 23:47:22 29° 342° (NNW) 23:50:19 145.825
QB50P2 29 Jan 23:52:55 23:57:08 53° 287° (WNW) 00:01:19 145.880/145.840
CUBEBUG 1 30 Jan 00:01:55 00:04:49 17° 270° (W) 00:07:36 437.445
QB50P1 30 Jan 00:02:08 00:06:14 43° 289° (WNW) 00:10:18 145.935-145.965
BUGSAT 1 30 Jan 00:10:41 00:14:47 45° 288° (WNW) 00:18:52 437.445
GONETS M04 30 Jan 00:13:48 00:20:18 25° 82° (E) 00:27:06
POLYITAN 1 30 Jan 00:17:35 00:21:25 30° 291° (WNW) 00:25:08 437.675
TISAT 1 30 Jan 00:18:22 00:22:23 41° 262° (W) 00:26:27 437.305
UNISAT 6 30 Jan 00:29:18 00:32:09 16° 297° (WNW) 00:34:48 437.425
Oscar 19 30 Jan 00:31:00 00:32:18 11° 85° (E) 00:33:57 437.125/150
POPSAT HIP 1 30 Jan 00:37:47 00:40:59 20° 294° (WNW) 00:44:04 437.405
DUCHIFAT 1 30 Jan 00:40:08 00:43:15 19° 295° (WNW) 00:46:14 145.980
SWISSCUBE 30 Jan 00:59:34 01:04:19 86° 80° (E) 01:09:08 437.505
BEESAT 30 Jan 01:15:17 01:20:02 72° 258° (WSW) 01:24:49 436.000
STARS 30 Jan 01:19:06 01:22:05 18° 64° (ENE) 01:25:12 437.465
ITUPSAT 1 30 Jan 01:19:37 01:24:20 67° 258° (WSW) 01:29:07 437.325
ISS 30 Jan 01:22:08 01:24:36 19° 2° (N) 01:27:06 145.825
KKS-1 30 Jan 01:25:53 01:29:49 31° 68° (ENE) 01:33:47 437.445
O/OREOS (USA 219) 30 Jan 01:27:48 01:32:03 36° 59° (ENE) 01:36:19 437.305
M-CUBED/EXP-1 PRIME 30 Jan 01:37:21 01:40:01 18° 63° (ENE) 01:42:39 437.505
BEESAT 2 30 Jan 01:40:52 01:43:56 21° 113° (ESE) 01:47:08 435.950
Gurwin Techsat 1B 30 Jan 01:47:57 01:50:58 16° 88° (E) 01:54:13 435.225
BEESAT 3 30 Jan 01:53:36 01:57:14 32° 116° (ESE) 02:00:58 437.485
Oscar 19 30 Jan 02:07:19 02:12:31 89° 285° (WNW) 02:17:39 437.125/150
GONETS M04 30 Jan 02:07:39 02:16:25 73° 281° (W) 02:25:10
AUBIESAT-1 30 Jan 02:08:59 02:12:34 35° 67° (ENE) 02:15:56 437.475
ITAMSAT 1 30 Jan 02:24:58 02:30:02 48° 99° (E) 02:35:05 435.822/435.867
SWISSCUBE 30 Jan 02:42:12 02:42:59 10° 274° (W) 02:43:25 437.505
STARS 30 Jan 02:53:56 02:58:15 48° 261° (W) 03:02:36 437.465
ISS 30 Jan 02:58:43 03:01:47 34° 21° (NNE) 03:04:52 145.825
PCSat 30 Jan 02:58:50 03:00:09 11° 103° (ESE) 03:01:50 145.827
KKS-1 30 Jan 03:02:37 03:06:29 27° 266° (W) 03:10:18 437.445
HORYU 2 30 Jan 03:06:08 03:09:46 24° 94° (E) 03:13:25 437.375
O/OREOS (USA 219) 30 Jan 03:07:34 03:11:20 25° 257° (WSW) 03:15:01 437.305
M-CUBED/EXP-1 PRIME 30 Jan 03:11:06 03:14:52 37° 256° (WSW) 03:18:21 437.505
MOZHAYETS 4 30 Jan 03:11:15 03:14:09 17° 64° (ENE) 03:17:13
AIST 2 30 Jan 03:17:16 03:21:32 87° 124° (SE) 03:25:52 435.215
BEESAT 2 30 Jan 03:17:59 03:21:55 41° 310° (NW) 03:25:56 435.950
DANDE 30 Jan 03:24:02 03:30:55 31° 86° (E) 03:38:14 436.750
AO-7 30 Jan 03:25:08 03:31:32 25° 91° (E) 03:38:10 29.400- 29.500
Gurwin Techsat 1B 30 Jan 03:26:15 03:31:34 70° 287° (WNW) 03:36:51 435.225
BEESAT 3 30 Jan 03:31:45 03:35:24 29° 314° (NW) 03:39:03 437.485
RS-15 30 Jan 03:43:57 03:52:28 29° 105° (ESE) 04:01:25 29.354- 29.394
AUBIESAT-1 30 Jan 03:44:49 03:47:37 18° 261° (W) 03:50:09 437.475
CUSAT 1 30 Jan 03:47:56 03:55:45 50° 92° (E) 04:03:44 437.405
Oscar 19 30 Jan 03:48:47 03:51:11 13° 301° (WNW) 03:53:21 437.125/150
ITAMSAT 1 30 Jan 04:05:06 04:09:17 24° 296° (WNW) 04:13:20 435.822/435.867
GONETS M04 30 Jan 04:10:04 04:15:14 16° 305° (NW) 04:19:56
ISS 30 Jan 04:35:13 04:38:21 40° 220° (SW) 04:41:28 145.825
JAS-2 30 Jan 04:36:30 04:41:49 39° 98° (E) 04:47:47 435.910
PCSat 30 Jan 04:37:24 04:42:49 82° 119° (ESE) 04:48:17 145.827
HORYU 2 30 Jan 04:42:29 04:46:31 33° 291° (WNW) 04:50:28 437.375
MOZHAYETS 4 30 Jan 04:46:32 04:51:02 54° 261° (W) 04:55:33
PRISM 30 Jan 04:48:02 04:50:43 17° 65° (ENE) 04:53:31 437.425
AIST 2 30 Jan 04:58:09 05:00:48 15° 323° (NW) 05:03:22 435.215
CUBESAT XI-V 30 Jan 05:05:33 05:08:51 20° 65° (ENE) 05:12:17 437.345
DANDE 30 Jan 05:05:35 05:13:54 68° 284° (WNW) 05:22:30 436.750
Gurwin Techsat 1B 30 Jan 05:09:27 05:10:42 11° 304° (WNW) 05:11:39 435.225
AO-7 30 Jan 05:16:52 05:25:13 75° 291° (WNW) 05:33:28 29.400- 29.500
CUSAT 1 30 Jan 05:31:05 05:38:58 43° 290° (WNW) 05:46:44 437.405
STRAND 1 30 Jan 05:31:39 05:36:00 30° 67° (ENE) 05:40:27 437.568
RS-15 30 Jan 05:52:53 06:03:49 79° 307° (NW) 06:14:56 29.354- 29.394
YUBILEINY 30 Jan 06:13:44 06:22:07 47° 73° (ENE) 06:30:34 435.215
Cubesat XI-IV 30 Jan 06:14:10 06:19:11 39° 97° (E) 06:24:14 437.490
JAS-2 30 Jan 06:21:54 06:26:55 33° 292° (WNW) 06:32:22 435.910
PRISM 30 Jan 06:22:03 06:25:58 43° 261° (W) 06:29:55 437.425
PCSat 30 Jan 06:22:58 06:26:58 20° 320° (NW) 06:30:52 145.827
CUTE-I 30 Jan 06:33:44 06:39:02 58° 100° (E) 06:44:21 437.470
CUBESAT XI-V 30 Jan 06:41:37 06:46:02 45° 262° (W) 06:50:29 437.345
DANDE 30 Jan 06:53:35 06:59:09 18° 306° (NW) 07:04:15 436.750
STRAND 1 30 Jan 07:10:28 07:15:08 35° 263° (W) 07:19:49 437.568
AO-7 30 Jan 07:11:15 07:16:48 19° 312° (NW) 07:22:03 29.400- 29.500
Cubesat XI-IV 30 Jan 07:54:32 07:59:11 30° 294° (WNW) 08:03:44 437.490
HO-68 30 Jan 08:06:29 08:11:43 22° 90° (E) 08:17:12 435.675
CUTE 1.7 + AOD 2 30 Jan 08:08:30 08:10:16 13° 88° (E) 08:12:15 437.475
RS-15 30 Jan 08:08:47 08:18:17 32° 335° (NNW) 08:27:52 29.354- 29.394
GOMX 1 30 Jan 08:09:32 08:13:01 18° 87° (E) 08:16:36 467.674
YUBILEINY 30 Jan 08:10:51 08:18:53 40° 273° (W) 08:26:47 435.215
CUTE-I 30 Jan 08:14:44 08:18:45 21° 297° (WNW) 08:22:37 437.470
DOVE 4 30 Jan 08:17:41 08:20:20 14° 86° (E) 08:23:11 437.250
BRITE-PL 30 Jan 08:18:14 08:23:11 31° 92° (E) 08:28:02 437.365/2234.400
PHONESAT 2.4 30 Jan 08:22:23 08:24:18 14° 151° (SSE) 08:26:18 2401.200-2431.200
SEEDS 30 Jan 08:36:35 08:39:49 22° 93° (E) 08:43:08 437.485
ANTELSAT 30 Jan 08:52:41 08:55:28 16° 63° (ENE) 08:58:24 437.575/2403.000
VERMONT LUNAR 30 Jan 08:54:11 08:57:14 29° 161° (SSE) 09:00:19 437.305
TIGRISAT 30 Jan 08:59:26 09:02:32 18° 64° (ENE) 09:05:46 435.000
COMPASS 1 30 Jan 09:01:15 09:05:03 33° 96° (E) 09:08:51 437.405
CUBEBUG 2 30 Jan 09:03:28 09:04:56 12° 86° (E) 09:06:38 437.445
DX 1 30 Jan 09:12:00 09:13:07 11° 87° (E) 09:14:30 434.975-435.025
QB50P2 30 Jan 09:13:26 09:15:37 14° 63° (ENE) 09:17:59 145.880/145.840
DELFI C3 30 Jan 09:16:54 09:19:31 17° 91° (E) 09:22:15 145.870
FUNcube-1 30 Jan 09:18:25 09:19:29 11° 86° (E) 09:20:50 145.935
CANX-2 30 Jan 09:18:25 09:22:41 83° 105° (ESE) 09:26:53 2200.000
QB50P1 30 Jan 09:21:49 09:24:30 17° 65° (ENE) 09:27:21 145.935-145.965
AAUSAT CUBESAT 2 30 Jan 09:26:34 09:30:41 57° 100° (E) 09:34:46 437.432
BUGSAT 1 30 Jan 09:28:32 09:30:46 15° 64° (ENE) 09:33:11 437.445
CINEMA 3 30 Jan 09:32:52 09:37:28 42° 97° (E) 09:41:53 145.822/145.860
POLYITAN 1 30 Jan 09:36:29 09:39:55 24° 67° (ENE) 09:43:26 437.675
UWE-3 30 Jan 09:39:36 09:43:13 24° 92° (E) 09:46:47 435.000/436.395/437.385
CUTE 1.7 + AOD 2 30 Jan 09:42:30 09:46:41 58° 286° (WNW) 09:50:48 437.475
GOMX 1 30 Jan 09:46:18 09:51:42 63° 287° (WNW) 09:56:50 467.674
Oscar 11 30 Jan 09:47:34 09:51:44 47° 99° (E) 09:55:54 145.826/435.025
UNISAT 6 30 Jan 09:51:07 09:55:43 57° 73° (ENE) 10:00:20 437.425
HO-68 30 Jan 09:53:03 10:00:12 72° 289° (WNW) 10:07:19 435.675
DOVE 4 30 Jan 09:53:35 09:58:49 72° 286° (WNW) 10:03:45 437.250
POPSAT HIP 1 30 Jan 09:55:22 09:59:17 36° 70° (ENE) 10:03:16 437.405
BRITE-PL 30 Jan 09:56:29 10:01:47 40° 291° (WNW) 10:06:50 437.365/2234.400
DUCHIFAT 1 30 Jan 09:57:22 10:01:17 37° 71° (ENE) 10:05:17 145.980
PHONESAT 2.4 30 Jan 09:58:57 10:02:20 39° 166° (SSE) 10:05:45 2401.200-2431.200
BEESAT 2 30 Jan 09:58:59 10:02:20 23° 43° (NE) 10:05:42 435.950
AIST 2 30 Jan 10:01:00 10:03:13 14° 35° (NE) 10:05:31 435.215
50 SAT 30 Jan 10:02:59 10:04:49 13° 89° (E) 10:06:50 437.505
VELOX 1 30 Jan 10:07:41 10:10:36 17° 91° (E) 10:13:41 145.980
BEESAT 3 30 Jan 10:11:45 10:15:30 31° 47° (NE) 10:19:13 437.485
SEEDS 30 Jan 10:11:58 10:15:45 33° 290° (WNW) 10:19:29 437.485
GONETS M04 30 Jan 10:22:34 10:25:50 13° 51° (NE) 10:29:43
UKube-1 30 Jan 10:23:27 10:27:48 63° 102° (ESE) 10:32:07 .
SO-50 30 Jan 10:24:27 10:28:58 66° 121° (ESE) 10:33:40 436.795
RS-15 30 Jan 10:26:33 10:35:15 25° 10° (N) 10:44:19 29.354- 29.394
ANTELSAT 30 Jan 10:27:08 10:31:50 63° 259° (W) 10:36:31 437.575/2403.000
VERMONT LUNAR 30 Jan 10:31:38 10:35:02 52° 178° (S) 10:38:28 437.305
NANOSAT C BR1 30 Jan 10:31:48 10:36:05 89° 100° (E) 10:40:25 145.865
TIGRISAT 30 Jan 10:34:18 10:38:56 55° 260° (W) 10:43:33 435.000
HUMSAT D 30 Jan 10:35:00 10:39:01 41° 97° (E) 10:42:59 437.325/437.525
COMPASS 1 30 Jan 10:37:23 10:40:38 22° 293° (WNW) 10:43:47 437.405
CUBEBUG 2 30 Jan 10:37:43 10:42:20 71° 284° (WNW) 10:46:43 437.445
ZACube-1 30 Jan 10:40:27 10:44:56 87° 104° (ESE) 10:49:15 437.345
